TimeCDT,TemperatureF,Dew PointF,Humidity,Sea Level PressureIn,VisibilityMPH,Wind Direction,Wind SpeedMPH,Gust SpeedMPH,PrecipitationIn,Events,Conditions,WindDirDegrees,DateUTC
2:15 AM,69.8,62.6,78,30.05,9.0,WNW,8.1,17.3,N/A,Rain,Light Rain,290,2013-08-12 07:15:00
2:35 AM,68.0,64.4,88,30.03,7.0,WSW,8.1,-,N/A,Rain,Light Rain,250,2013-08-12 07:35:00
2:55 AM,68.0,64.4,88,30.02,7.0,SW,6.9,-,0.01,,Light Drizzle,230,2013-08-12 07:55:00
3:15 AM,68.0,64.4,88,30.02,10.0,SSW,6.9,-,N/A,,Overcast,210,2013-08-12 08:15:00
3:35 AM,66.2,64.4,94,30.02,10.0,SSW,6.9,-,N/A,,Mostly Cloudy,210,2013-08-12 08:35:00
3:55 AM,68.0,64.4,88,30.02,7.0,SSW,9.2,-,0.01,Rain,Light Rain,210,2013-08-12 08:55:00
4:15 AM,68.0,64.4,88,30.00,-9999.0,South,5.8,-,N/A,,Unknown,190,2013-08-12 09:15:00
4:35 AM,66.2,64.4,94,29.99,8.0,SSW,5.8,-,N/A,Rain,Light Rain,200,2013-08-12 09:35:00
4:55 AM,66.2,64.4,94,30.00,10.0,WSW,5.8,-,0.05,,Mostly Cloudy,240,2013-08-12 09:55:00
5:15 AM,68.0,64.4,88,30.00,10.0,WSW,6.9,-,N/A,,Overcast,240,2013-08-12 10:15:00
5:35 AM,68.0,64.4,88,30.00,10.0,SW,6.9,-,N/A,,Overcast,220,2013-08-12 10:35:00
5:55 AM,68.0,64.4,88,29.99,10.0,SW,5.8,-,N/A,,Overcast,220,2013-08-12 10:55:00
6:15 AM,68.0,64.4,88,29.99,10.0,SSW,5.8,-,N/A,,Overcast,210,2013-08-12 11:15:00
6:35 AM,68.0,64.4,88,29.99,10.0,SW,4.6,-,N/A,,Overcast,220,2013-08-12 11:35:00
6:55 AM,68.0,64.4,88,29.99,10.0,WNW,3.5,-,N/A,,Overcast,290,2013-08-12 11:55:00
7:15 AM,68.0,64.4,88,30.00,10.0,NNW,4.6,-,N/A,,Mostly Cloudy,330,2013-08-12 12:15:00
7:35 AM,68.0,66.2,94,30.00,10.0,North,4.6,-,N/A,,Mostly Cloudy,360,2013-08-12 12:35:00
7:55 AM,69.8,66.2,88,30.00,10.0,NNE,6.9,-,N/A,,Overcast,20,2013-08-12 12:55:00
8:15 AM,69.8,66.2,88,30.01,8.0,North,6.9,-,N/A,,Scattered Clouds,10,2013-08-12 13:15:00
8:35 AM,69.8,66.2,88,30.01,10.0,NNE,8.1,-,N/A,,Clear,20,2013-08-12 13:35:00
8:55 AM,69.8,66.2,88,30.02,10.0,North,8.1,-,N/A,,Partly Cloudy,360,2013-08-12 13:55:00
9:15 AM,69.8,66.2,88,30.02,10.0,North,6.9,-,N/A,,Mostly Cloudy,350,2013-08-12 14:15:00
9:35 AM,71.6,66.2,83,30.02,10.0,Calm,Calm,-,N/A,,Mostly Cloudy,0,2013-08-12 14:35:00
9:55 AM,71.6,68.0,88,30.02,10.0,NNW,5.8,-,N/A,,Scattered Clouds,330,2013-08-12 14:55:00
10:15 AM,71.6,68.0,88,30.03,9.0,NNW,9.2,-,N/A,,Mostly Cloudy,340,2013-08-12 15:15:00
10:35 AM,73.4,68.0,83,30.03,10.0,North,10.4,-,N/A,,Mostly Cloudy,360,2013-08-12 15:35:00
10:55 AM,73.4,66.2,78,30.03,10.0,North,12.7,19.6,N/A,,Scattered Clouds,360,2013-08-12 15:55:00
11:15 AM,73.4,66.2,78,30.04,10.0,North,9.2,-,N/A,,Scattered Clouds,360,2013-08-12 16:15:00
11:35 AM,75.2,66.2,73,30.04,10.0,NNE,9.2,-,N/A,,Mostly Cloudy,30,2013-08-12 16:35:00
11:55 AM,77.0,66.2,69,30.03,10.0,NNE,9.2,-,N/A,,Partly Cloudy,20,2013-08-12 16:55:00
12:15 PM,77.0,64.4,65,30.03,10.0,NNE,8.1,15.0,N/A,,Partly Cloudy,30,2013-08-12 17:15:00
12:35 PM,78.8,62.6,57,30.02,10.0,North,9.2,18.4,N/A,,Clear,360,2013-08-12 17:35:00
12:55 PM,78.8,62.6,57,30.02,10.0,North,9.2,15.0,N/A,,Clear,10,2013-08-12 17:55:00
1:15 PM,78.8,62.6,57,30.02,10.0,NNE,8.1,16.1,N/A,,Clear,30,2013-08-12 18:15:00
1:35 PM,78.8,60.8,54,30.02,10.0,North,10.4,-,N/A,,Clear,350,2013-08-12 18:35:00
1:55 PM,80.6,60.8,51,30.02,10.0,North,12.7,-,N/A,,Clear,350,2013-08-12 18:55:00
2:15 PM,80.6,60.8,51,30.02,10.0,NNW,11.5,18.4,N/A,,Clear,340,2013-08-12 19:15:00
2:35 PM,80.6,60.8,51,30.01,10.0,NNE,11.5,-,N/A,,Partly Cloudy,30,2013-08-12 19:35:00
2:55 PM,80.6,59.0,48,30.01,10.0,NNE,10.4,17.3,N/A,,Clear,20,2013-08-12 19:55:00
3:15 PM,80.6,60.8,51,30.00,10.0,North,10.4,-,N/A,,Clear,350,2013-08-12 20:15:00
3:35 PM,82.4,60.8,48,30.00,10.0,NNE,8.1,20.7,N/A,,Scattered Clouds,20,2013-08-12 20:35:00
3:55 PM,80.6,60.8,51,29.99,10.0,North,6.9,-,N/A,,Scattered Clouds,360,2013-08-12 20:55:00
5:15 PM,82.4,57.2,42,29.99,10.0,NNW,13.8,-,N/A,,Clear,330,2013-08-12 22:15:00
5:55 PM,80.6,57.2,45,29.99,10.0,NNW,10.4,16.1,N/A,,Clear,340,2013-08-12 22:55:00
6:55 PM,78.8,55.4,44,29.99,10.0,NNW,9.2,-,N/A,,Clear,340,2013-08-12 23:55:00
7:15 PM,78.8,55.4,44,29.99,10.0,North,9.2,16.1,N/A,,Clear,350,2013-08-13 00:15:00
7:35 PM,77.0,55.4,47,29.99,10.0,North,10.4,17.3,N/A,,Clear,350,2013-08-13 00:35:00
7:55 PM,75.2,55.4,50,30.00,10.0,North,9.2,-,N/A,,Clear,350,2013-08-13 00:55:00
8:15 PM,75.2,53.6,47,30.00,-9999.0,North,8.1,-,N/A,,Clear,360,2013-08-13 01:15:00
8:35 PM,73.4,53.6,50,30.00,10.0,North,8.1,-,N/A,,Clear,360,2013-08-13 01:35:00
8:55 PM,73.4,55.4,53,30.01,10.0,North,6.9,-,N/A,,Clear,10,2013-08-13 01:55:00
9:15 PM,71.6,55.4,57,30.02,10.0,North,5.8,-,N/A,,Clear,360,2013-08-13 02:15:00
9:55 PM,71.6,57.2,60,30.03,10.0,North,8.1,-,N/A,,Clear,10,2013-08-13 02:55:00
10:15 PM,69.8,57.2,64,30.04,10.0,North,6.9,-,N/A,,Clear,360,2013-08-13 03:15:00
10:35 PM,68.0,57.2,68,30.04,10.0,NNW,5.8,-,N/A,,Clear,340,2013-08-13 03:35:00
10:55 PM,64.4,57.2,77,30.05,10.0,NNW,4.6,-,N/A,,Clear,330,2013-08-13 03:55:00
11:15 PM,64.4,57.2,77,30.06,10.0,NNW,4.6,-,N/A,,Clear,330,2013-08-13 04:15:00
11:55 PM,66.2,57.2,73,30.06,10.0,North,5.8,-,N/A,,Clear,360,2013-08-13 04:55:00